Location: Zagreb
(45.8000°N, 16.0000°E)
Time: 08:28:48
(UTC+02:00)

Courier 1B Rocket - Pass Details

Date: 13 August 2022
Orbit: 920 x 1202 km, 28.2° (Epoch: 25 September)

Event Time Altitude Azimuth Distance (km) Brightness Sun altitude
Rises 18:15:36 0° 235° (SW) 3,549 8.8 18.2°
Reaches altitude 10° 18:19:17 10° 213° (SSW) 2,624 7.8 17.6°
Maximum altitude 18:22:49 16° 179° (S) 2,272 7.0 16.9°
Drops below altitude 10° 18:26:27 10° 144° (SE) 2,692 7.0 16.3°
Sets 18:30:18 0° 123° (ESE) 3,692 7.5 15.6°
